Location: *
(2.5500°S, 65.9667°W)
Time: 07:37:50
(UTC+00:00)

Explorer 7 - Pass Details

Date: 23 April 2024
Orbit: 467 x 625 km, 50.3° (Epoch: 26 May)

Event Time Altitude Azimuth Distance (km) Brightness Sun altitude
Rises 23:01:44 0° 324° (NW) 2,725 11.2 -10.2°
Reaches altitude 10° 23:04:02 10° 325° (NW) 1,805 10.2 -10.8°
Maximum altitude 23:08:08 83° 51° (NE) 530 6.6 -11.8°
Enters shadow 23:11:32 13° 141° (SE) 1,520 8.6 -12.6°
Drops below altitude 10° 23:12:02 10° 141° (SE) 1,715 - -12.7°
Sets 23:14:10 0° 142° (SE) 2,577 - -13.3°
